Regional Weather Roundup
Issued by NWS Upton, NY

Current Version | Previous Version | Graphics & Text | Print | Product List | Glossary Off
Versions: 1 2 3 4 5 6 7 8 9 10 11 12 13 14 15 16 17 18 19 20 21 22 23 24 25 26 27 28 29 30 31 32 33 34 35 36 37 38 39 40 41 42 43 44 45 46 47 48 49 50

392
ASUS41 KOKX 230208
RWROKX

REGIONAL WEATHER ROUNDUP
NATIONAL WEATHER SERVICE NEW YORK NY
900 PM EST SUN JAN 22 2017

NOTE: "FAIR" INDICATES FEW OR NO CLOUDS BELOW 12,000 FEET WITH NO
SIGNIFICANT WEATHER AND/OR OBSTRUCTIONS TO VISIBILITY.

NYZ071-072-176-178-NJZ106-104-230300-
NEW YORK CITY METRO AREA

CITY           SKY/WX    TMP DP  RH WIND       PRES   REMARKS
Central Park   CLOUDY    47  41  80 E12G25    29.79R
Wall St Helipt CLOUDY    48  42  80 NE17      29.77R
LaGuardia APRT CLOUDY    49  41  74 NE17      29.78R
Kennedy INTL   CLOUDY    49  44  83 E22G33    29.78R
Breezy Point     N/A     43 N/A N/A E15G22      N/A
Newark/Liberty CLOUDY    50  43  77 NE8       29.76R
Teterboro      CLOUDY    48  41  76 E16G26    29.78R
$$

NYZ177-179-078>081-230300-
LONG ISLAND NEW YORK

CITY           SKY/WX    TMP DP  RH WIND       PRES   REMARKS
Jones Beach      N/A     45 N/A N/A E25G35      N/A
Matinecock PT    N/A     45 N/A N/A E28G35      N/A
Farmingdale    CLOUDY    47  40  76 E22G35    29.78S
MacArthur/ISP  CLOUDY    46  41  82 NE21G31   29.78F
Shirley        CLOUDY    45  41  86 MISG      29.80F
Westhampton    CLOUDY    45  39  79 NE15G25   29.82S
Southampton    NOT AVBL
Bridgehampton  NOT AVBL
East Hampton   CLOUDY    43  40  87 NE14G20   29.82F
Montauk          N/A     43  42  97 NE14G24   29.85R
$$

NYZ052-065-067-230300-
HUDSON VALLEY

CITY           SKY/WX    TMP DP  RH WIND       PRES   REMARKS
White Plains   CLOUDY    46  39  76 E15       29.78R
Newburgh       CLOUDY    46  43  87 E16       29.78S
Montgomery     CLOUDY    48  41  76 NE10      29.76R
Poughkeepsie   CLOUDY    45  39  79 NE13G18   29.79S
Albany         DRIZZLE   38  34  85 N7        29.87R WCI  33
$$

NJZ001-105-106-008-010-013-015-019>022-104-230300-
NEW JERSEY

CITY           SKY/WX    TMP DP  RH WIND       PRES   REMARKS
Newark/Liberty CLOUDY    50  43  77 NE8       29.76R
Teterboro      CLOUDY    48  41  76 E16G26    29.78R
Caldwell       CLOUDY    47  41  80 E16G24    29.78R
Somerville     CLOUDY    49  44  83 E5        29.72F
Linden         CLOUDY    47  44  88 CALM      29.76R
Sussex         CLOUDY    48  46  93 NE6       29.76R
Andover          N/A     47  43  86 VRB3      29.74S
Trenton        CLOUDY    46  44  93 E12       29.72S
Millville      CLOUDY    49  49 100 NE14      29.66S FOG
Atlantic City  FOG       48  46  93 NE24G33   29.66F VSB 1/2
Wrightstown    CLOUDY    46  45  97 NE15      29.69R FOG
Toms River     LGT RAIN  45  44  97 NE17G23   29.73R
Belmar         CLOUDY    44  42  93 NE20G28   29.74R
$$

PAZ047>061-062-071-230300-
EASTERN PENNSYLVANIA

CITY           SKY/WX    TMP DP  RH WIND       PRES   REMARKS
Philadelphia   CLOUDY    48  46  93 E14       29.70R FOG
Allentown      CLOUDY    50  45  83 E10       29.72R
Scranton       CLOUDY    51  47  86 VRB3      29.71R
$$

CTZ002-004>006-009-010-012-RIZ004-006-007-MAZ004-011-015-230300-
SOUTHERN NEW ENGLAND
 IN CT

CITY           SKY/WX    TMP DP  RH WIND       PRES   REMARKS
Bradley INTL   CLOUDY    40  36  86 NE15      29.89S WCI  32
Hartford       CLOUDY    43  37  79 NE14      29.88R
Danbury        CLOUDY    44  39  82 E14G22    29.80S
Wtrbury/Oxford CLOUDY    43  36  75 E14G24    29.83R
Bridgeport     CLOUDY    47  40  76 E15       29.82R
Meriden        CLOUDY    45  38  76 NE8       29.86R
New Haven      CLOUDY    45  40  82 NE15G22   29.83R
Chester        CLOUDY    43  41  93 NE8       29.84R
Groton         CLOUDY    45  40  82 NE17G26   29.84S
Wilimantic     CLOUDY    43  40  89 NE12      29.88R

 IN RI

CITY           SKY/WX    TMP DP  RH WIND       PRES   REMARKS
Providence     DRIZZLE   41  39  93 NE14      29.91R FOG
Block Island   NOT AVBL
Westerly       CLOUDY    45  39  79 NE17G24   29.87R
 IN MA

CITY           SKY/WX    TMP DP  RH WIND       PRES   REMARKS
Boston         CLOUDY    41  37  86 NE17      29.96R
Worcester      MIX PCPN  35  33  92 NE12G21   29.89R VSB 1/2 WCI  27
Westfield      CLOUDY    39  35  86 N8        29.90S WCI  33
Provincetown   CLOUDY    42  36  79 E16G25    29.94R
Nantucket      CLOUDY    44  39  82 E14G26    29.86R
$$

ANZ330-335-338-340-345-350-353-355-230300-
COASTAL MARINE OBSERVATIONS


STATION/POSITION TIME  SKY/WX   TEMP    WIND        PRES    VSBY  WAVE
                                AIR SEA DIR/SP/G                  HT/PER
                 (UTC)          (F)     (DEG/KT/KT) (MB)    (MI)  (FT/S)
NY HARB ENTRANCE 0050            45 43   70/ 25/ 31 1006.4          6/ 6
20 S FIRE ISLAND 0050            46 45   60/ 23/ 29 1006.6          7/ 5
GREAT SOUTH BAY  NOT AVBL
23 SSW MONTAUK P 0050            46 47   70/ 23/ 29 1008.9          7/ 6
15 E BARNEGAT LI 0130               47                N/A           7/ 6
HUDSON CANYON    0050            51 52              1004.9          8/ 6
KINGS POINT      0130               40              1007.9
EXECUTION ROCKS  0145            44      80/ 17/ 25   N/A
CENTRAL LI SOUND 0130            44      80/ 16/ 19   N/A           2/ 3
EASTERN LI SOUND NOT AVBL
ROBBINS REEF     0130                   110/  7/  8 1007.9
$$


>>>>>>>>>>>>>>>>>>>>>>>>>>>> KEY <<<<<<<<<<<<<<<<<<<<<<<<<<<
>                                                          <
>     SKY/WX - Sky Condition/Present Weather               <
>     TMP    - Temperature in Fahrenheit                   <
>     DP     - Dew Point in Fahrenheit                     <
>     RH     - Relative Humidity in Percent                <
>     WIND   - Direction (from) and Speed in MPH           <
>     PRES   - Mean Sea Level Pressure (inches of Hg)      <
>     WCI    - Wind Chill Index                            <
>     VSB    - VISIBILITY IN MILES                         <
>     HX     - HEAT INDEX                                  <
>     TC     - TEMPERATURE IN CELSIUS                      <
>     VRB    - VARIABLE WIND DIRECTION                     <
>                                                          <
>>>>>>>>>>>>>>>>>>>>>>>>>>>> KEY <<<<<<<<<<<<<<<<<<<<<<<<<<<




USA.gov is the U.S. government's official web portal to all federal, state and local government web resources and services.